[[{"header":{"parameterUnit":"m.s-1","parameterCategory":1,"la1":30.2991,"la2":30.254,"lo1":-89.0895,"lo2":-89.0444,"dy":0.0017,"dx":0.0017,"nx":28,"ny":28,"refTime":"2024-10-05T09:00:00:Z","depth":0,"parameterNumber":2,"parameterNumberName":"U-component_of_WINDS"},"data":[0,0,0,0,0,0,0,0,0,0,0,0,0,0,0,0,0,0,0,0,0,0,0,0,0,0,0,0,0,0,0,0,0,0,0,0,0,0,0,0,0,0,0,0,0,0,0,0,0,0,0,0,0,0,0,0,0,0,-3.309,-3.309,0,-3.3047,-3.3046,-3.3046,-3.2896,-3.2893,-3.2889,-3.2886,-3.2847,-3.2849,-3.2851,0,0,0,0,0,0,0,0,0,0,0,0,0,-3.3049,-3.3051,-3.3091,-3.309,-3.3089,-3.3047,-3.3046,-3.3045,-3.2897,-3.2893,-3.2888,-3.2885,-3.2846,-3.2848,-3.2851,0,0,0,0,0,0,0,0,0,0,0,0,0,-3.3043,-3.3051,-3.3091,-3.301,-3.3002,-3.3047,-3.3046,-3.3045,-3.2897,-3.2892,-3.2887,-3.2883,-3.2845,-3.2848,-3.2851,-3.2972,0,0,-3.2861,-3.2862,0,0,0,0,0,0,0,0,-3.3043,-3.3045,-3.3022,-3.3015,-3.3007,-3.2971,-3.3017,-3.3021,-3.2899,-3.2938,-3.2886,-3.288,-3.2893,-3.2891,-3.2895,-3.297,-3.2968,-3.2861,-3.2863,-3.2864,-3.2865,0,0,0,0,0,0,0,-3.3044,-3.3046,-3.3073,-3.3022,-3.3013,-3.2977,-3.2971,-3.3017,-3.2944,-3.2934,-3.2923,-3.2919,-3.2887,-3.2892,-3.2893,-3.2968,-3.2861,-3.2864,-3.2866,-3.2867,-3.314,-3.3145,0,0,0,0,0,0,-3.3055,-3.3047,-3.3075,-3.3072,-3.3013,-3.2982,-3.2975,-3.2988,-3.2943,-3.2931,-3.2924,-3.2912,-3.2889,-3.2889,-3.2891,-3.3029,-3.2864,-3.2867,-3.2869,-3.3135,-3.3142,-3.3147,0,0,0,0,0,0,-3.3055,-3.3059,-3.3076,-3.3056,-3.3056,-3.2988,-3.3004,-3.299,-3.2994,-3.2935,-3.2922,-3.2941,-3.2885,-3.2886,-3.2952,-3.3026,-3.2869,-3.2872,-3.3129,-3.3137,-3.3144,-3.3308,0,0,0,0,0,0,-3.3055,-3.306,-3.3105,-3.3058,-3.3057,-3.3139,-3.3009,-3.2993,-3.2999,-3.2984,-3.2949,-3.2938,-3.2881,-3.2949,-3.2956,-3.3027,-3.2874,-3.3122,-3.3132,-3.3142,-3.3296,-3.3321,-3.3342,0,0,0,0,0,-3.3054,-3.3154,-3.3108,-3.3112,-3.3111,-3.3143,-3.3143,-3.3074,-3.3006,-3.3051,-3.3013,-3.2939,-3.3016,-3.2957,-3.2963,-3.3037,-3.3117,-3.3129,-3.3141,-3.3286,-3.3316,-3.3342,0,0,0,0,0,0,-3.3213,-3.3146,-3.3094,-3.3182,-3.3169,-3.3118,-3.3172,-3.3108,-3.3115,-3.3101,-3.3017,-3.301,-3.3089,-3.3069,-3.3004,-3.3152,-3.3054,-3.3068,-3.3162,-3.319,-3.3213,-3.3217,-3.2877,0,0,0,0,0,-3.3257,-3.3287,-3.3228,-3.3311,-3.3307,-3.3241,-3.3252,-3.32,-3.3184,-3.3178,-3.3145,-3.3134,-3.3155,-3.3171,-3.3188,-3.3292,-3.3282,-3.3346,-3.3369,-3.3388,-3.3402,-3.3456,-3.3484,-3.3187,-3.3187,-3.3187,0,0,-3.3351,-3.3319,-3.3343,-3.3342,-3.3326,-3.336,-3.3238,-3.3279,-3.3304,-3.3185,-3.3245,-3.3221,-3.3202,-3.3288,-3.3324,-3.3274,-3.3481,-3.3403,-3.3419,-3.3423,-3.3471,-3.3499,-3.3525,-3.3195,-3.3194,-3.3193,0,0,-3.354,-3.3518,-3.3584,-3.357,-3.3546,-3.3501,-3.3517,-3.3475,-3.3453,-3.3512,-3.3424,-3.3452,-3.3491,-3.3482,-3.3482,-3.3665,-3.3598,-3.3673,-3.3795,-3.3848,-3.3872,-3.3892,-3.3959,-3.3984,-3.3687,-3.3687,-3.3687,0,-3.366,-3.3706,-3.3627,-3.3674,-3.3677,-3.3568,-3.3636,-3.3626,-3.361,-3.3615,-3.3558,-3.3604,-3.3584,-3.3666,-3.3711,-3.3714,-3.3731,-3.3678,-3.3874,-3.3894,-3.3912,-3.3975,-3.4,-3.3696,-3.3695,-3.3694,-3.3693,0,-3.3856,-3.3889,-3.3946,-3.3931,-3.394,-3.3997,-3.3928,-3.3947,-3.3893,-3.3855,-3.3917,-3.3888,-3.3897,-3.3912,-3.3862,-3.3988,-3.3957,-3.3889,-3.379,-3.3951,-3.4008,-3.4032,-3.371,-3.3706,-3.3704,-3.3701,0,0,-3.4146,-3.4084,-3.4107,-3.4098,-3.4063,-3.4088,-3.414,-3.4147,-3.4165,-3.4157,-3.42,-3.4234,-3.417,-3.4171,-3.4118,-3.4165,-3.4313,-3.409,-3.4088,-3.4134,-3.4452,-3.4505,-3.4534,-3.4267,-3.4271,-3.4275,-3.4454,0,-3.4326,-3.441,-3.434,-3.4438,-3.4469,-3.4365,-3.441,-3.4395,-3.436,-3.4382,-3.4343,-3.437,-3.4282,-3.4282,-3.4324,-3.4286,-3.4376,-3.4272,-3.4309,-3.4311,-3.4318,-3.4564,-3.462,-3.479,-3.4476,-3.4479,-3.4482,0,-3.4548,-3.4548,-3.4649,-3.4606,-3.4616,-3.4658,-3.4658,-3.4679,-3.4659,-3.4631,-3.4631,-3.4564,-3.4614,-3.4515,-3.4583,-3.4514,-3.4525,-3.4509,-3.4514,-3.4516,-3.4408,-3.4575,-3.4843,-3.4869,-3.4516,-3.4514,-3.4511,0,-3.4751,-3.4776,-3.4839,-3.4835,-3.4786,-3.4818,-3.48,-3.4774,-3.4783,-3.4783,-3.4788,-3.4795,-3.48,-3.4808,-3.4746,-3.4679,-3.4823,-3.4719,-3.4802,-3.4804,-3.4839,-3.4838,-3.5115,-3.4843,-3.4843,-3.4842,-3.4842,0,-3.4961,-3.5027,-3.493,-3.4969,-3.504,-3.4959,-3.5032,-3.5003,-3.4981,-3.5014,-3.4925,-3.4958,-3.4873,-3.4898,-3.4849,-3.4914,-3.4916,-3.4896,-3.4883,-3.4905,-3.4908,-3.4913,-3.49,-3.4849,-3.4847,-3.4846,-3.4845,0,-3.5201,-3.5138,-3.52,-3.5148,-3.5136,-3.5192,-3.5147,-3.5182,-3.514,-3.5183,-3.5189,-3.5124,-3.5149,-3.5086,-3.5102,-3.507,-3.5163,-3.513,-3.517,-3.516,-3.5248,-3.5241,-3.5539,-3.5574,-3.5279,-3.5282,-3.5284,0,-3.534,-3.5388,-3.534,-3.5354,-3.534,-3.5365,-3.5372,-3.5294,-3.5305,-3.5285,-3.5323,-3.5339,-3.5349,-3.5393,-3.5349,-3.536,-3.5328,-3.5431,-3.5329,-3.535,-3.5332,-3.533,-3.5335,-3.5453,-3.5457,-3.546,-3.5462,0,-3.5594,-3.556,-3.5572,-3.5575,-3.5585,-3.5583,-3.5576,-3.5593,-3.5509,-3.5527,-3.5549,-3.5557,-3.5571,-3.559,-3.5591,-3.5573,-3.5506,-3.5494,-3.5514,-3.5539,-3.5561,-3.5552,-3.5229,-3.5488,-3.5486,-3.5484,-3.5482,-3.5481,-3.5789,-3.5826,-3.5798,-3.5815,-3.58,-3.5795,-3.5825,-3.5786,-3.5802,-3.5807,-3.576,-3.5793,-3.5771,-3.5765,-3.5755,-3.5781,-3.5734,-3.5763,-3.5771,-3.578,-3.5795,-3.5555,-3.578,-3.578,-3.5779,-3.5778,-3.5778,0,-3.6039,-3.6015,-3.6031,-3.6022,-3.6036,-3.5966,-3.5954,-3.5971,-3.6,-3.5985,-3.5995,-3.6021,-3.6038,-3.5994,-3.6005,-3.6034,-3.6003,-3.604,-3.6038,-3.6035,-3.5835,-3.5817,-3.6064,-3.6064,-3.6064,-3.6064,-3.6064,-3.6064,-3.6171,-3.6231,-3.6194,-3.6246,-3.6222,-3.6251,-3.6251,-3.6246,-3.6232,-3.6265,-3.6278,-3.6248,-3.6221,-3.6229,-3.6242,-3.6228,-3.6238,-3.6286,-3.6262,-3.6077,-3.6049,-3.6022,-3.6005,-3.6288,-3.6288,-3.646,-3.6461,-3.6462]},{"header":{"parameterUnit":"m.s-1","parameterCategory":1,"la1":30.2991,"la2":30.254,"lo1":-89.0895,"lo2":-89.0444,"dy":0.0017,"dx":0.0017,"nx":28,"ny":28,"refTime":"2024-10-05T09:00:00:Z","depth":0,"parameterNumber":3,"parameterNumberName":"V-component_of_WINDS"},"data":[0,0,0,0,0,0,0,0,0,0,0,0,0,0,0,0,0,0,0,0,0,0,0,0,0,0,0,0,0,0,0,0,0,0,0,0,0,0,0,0,0,0,0,0,0,0,0,0,0,0,0,0,0,0,0,0,0,0,-2.1787,-2.1787,0,-2.1818,-2.1818,-2.1819,-2.1811,-2.181,-2.1809,-2.1809,-2.1839,-2.184,-2.1841,0,0,0,0,0,0,0,0,0,0,0,0,0,-2.1717,-2.1719,-2.1787,-2.1787,-2.1787,-2.1818,-2.1818,-2.1819,-2.1811,-2.181,-2.1809,-2.1809,-2.1838,-2.184,-2.1842,0,0,0,0,0,0,0,0,0,0,0,0,0,-2.1748,-2.1719,-2.1787,-2.1787,-2.1788,-2.1818,-2.1818,-2.1819,-2.1811,-2.181,-2.1809,-2.1808,-2.1838,-2.184,-2.1842,-2.1873,0,0,-2.1848,-2.1849,0,0,0,0,0,0,0,0,-2.1746,-2.175,-2.1787,-2.1787,-2.1788,-2.1809,-2.1805,-2.1837,-2.1811,-2.1802,-2.1809,-2.1808,-2.183,-2.1832,-2.184,-2.1874,-2.1875,-2.1848,-2.185,-2.185,-2.1851,0,0,0,0,0,0,0,-2.1744,-2.1749,-2.1799,-2.1787,-2.1788,-2.1785,-2.1788,-2.1811,-2.182,-2.1803,-2.1802,-2.1806,-2.183,-2.1838,-2.1841,-2.1876,-2.1848,-2.185,-2.1851,-2.1852,-2.1935,-2.1936,0,0,0,0,0,0,-2.1742,-2.1747,-2.1798,-2.18,-2.1764,-2.1787,-2.1791,-2.1803,-2.182,-2.1822,-2.1807,-2.1806,-2.1835,-2.1838,-2.1842,-2.1878,-2.185,-2.1852,-2.1853,-2.1934,-2.1935,-2.1936,0,0,0,0,0,0,-2.174,-2.1747,-2.1797,-2.1773,-2.178,-2.1789,-2.1803,-2.1804,-2.1813,-2.1823,-2.1825,-2.1814,-2.1834,-2.1839,-2.1865,-2.1879,-2.1853,-2.1855,-2.1933,-2.1935,-2.1936,-2.1951,0,0,0,0,0,0,-2.1739,-2.1746,-2.1759,-2.1774,-2.1781,-2.182,-2.1804,-2.1806,-2.1817,-2.1815,-2.183,-2.1832,-2.1834,-2.1862,-2.1867,-2.1881,-2.1857,-2.1932,-2.1934,-2.1935,-2.195,-2.1953,-2.1956,0,0,0,0,0,-2.1736,-2.1762,-2.1759,-2.1765,-2.1797,-2.1821,-2.1825,-2.1828,-2.1818,-2.183,-2.1836,-2.1831,-2.1877,-2.1865,-2.187,-2.1885,-2.1931,-2.1933,-2.1935,-2.1948,-2.1952,-2.1956,0,0,0,0,0,0,-2.1747,-2.1764,-2.1761,-2.1793,-2.1806,-2.182,-2.1835,-2.1832,-2.1848,-2.1846,-2.1848,-2.1851,-2.1877,-2.1884,-2.187,-2.1915,-2.1902,-2.1906,-2.191,-2.1914,-2.1918,-2.1915,-2.1858,0,0,0,0,0,-2.1754,-2.1773,-2.1785,-2.1812,-2.1818,-2.1826,-2.1836,-2.1837,-2.185,-2.1855,-2.1864,-2.1876,-2.1893,-2.1904,-2.192,-2.1951,-2.1953,-2.1964,-2.1967,-2.197,-2.1972,-2.1988,-2.1992,-2.1944,-2.1944,-2.1944,0,0,-2.1767,-2.1778,-2.179,-2.1814,-2.1824,-2.1843,-2.183,-2.1851,-2.1864,-2.1858,-2.1883,-2.189,-2.1904,-2.1932,-2.1944,-2.1938,-2.1986,-2.1973,-2.1975,-2.1976,-2.199,-2.1995,-2.1999,-2.1945,-2.1945,-2.1945,0,0,-2.1799,-2.181,-2.1833,-2.1843,-2.1859,-2.1863,-2.1869,-2.1883,-2.1887,-2.1912,-2.1908,-2.1923,-2.1953,-2.1963,-2.1971,-2.2007,-2.2002,-2.2012,-2.2029,-2.2044,-2.2047,-2.2051,-2.2062,-2.2066,-2.2015,-2.2015,-2.2015,0,-2.1813,-2.1842,-2.1845,-2.1865,-2.1876,-2.1872,-2.1894,-2.1903,-2.1923,-2.193,-2.1923,-2.1959,-2.1968,-2.1997,-2.2006,-2.2014,-2.2019,-2.201,-2.2047,-2.205,-2.2053,-2.2064,-2.2069,-2.2016,-2.2016,-2.2015,-2.2015,0,-2.1858,-2.1877,-2.1894,-2.1913,-2.1925,-2.1947,-2.1952,-2.1964,-2.1963,-2.1968,-2.1993,-2.2003,-2.2021,-2.2028,-2.2028,-2.2057,-2.2053,-2.2046,-2.2033,-2.2059,-2.2069,-2.2073,-2.2017,-2.2017,-2.2016,-2.2016,0,0,-2.1899,-2.1919,-2.1925,-2.1933,-2.1949,-2.1964,-2.1984,-2.2002,-2.2012,-2.2025,-2.2042,-2.2066,-2.206,-2.207,-2.207,-2.2083,-2.2109,-2.2075,-2.2075,-2.208,-2.2141,-2.2145,-2.215,-2.2107,-2.2107,-2.2108,-2.2139,0,-2.1932,-2.1969,-2.1972,-2.2004,-2.2022,-2.2018,-2.2035,-2.2047,-2.2051,-2.2066,-2.2071,-2.2088,-2.2079,-2.2085,-2.2098,-2.2103,-2.2121,-2.2101,-2.2121,-2.2121,-2.2117,-2.2156,-2.2161,-2.219,-2.2143,-2.2144,-2.2145,0,-2.1976,-2.1991,-2.2026,-2.2038,-2.2046,-2.2062,-2.2077,-2.2092,-2.2104,-2.2107,-2.2117,-2.2116,-2.2136,-2.2122,-2.2149,-2.2135,-2.2143,-2.2147,-2.2148,-2.215,-2.2134,-2.2157,-2.2199,-2.2203,-2.2151,-2.2151,-2.215,0,-2.2001,-2.203,-2.2054,-2.2061,-2.2077,-2.2088,-2.2095,-2.2107,-2.2117,-2.213,-2.2136,-2.2152,-2.216,-2.2172,-2.2174,-2.2164,-2.2201,-2.2188,-2.2202,-2.2202,-2.221,-2.2209,-2.2252,-2.2216,-2.2216,-2.2216,-2.2216,0,-2.2038,-2.2059,-2.2065,-2.208,-2.2103,-2.2105,-2.2128,-2.2134,-2.2144,-2.2159,-2.2156,-2.217,-2.2173,-2.2187,-2.2189,-2.221,-2.2214,-2.2216,-2.2216,-2.2216,-2.2216,-2.2221,-2.2218,-2.2217,-2.2217,-2.2217,-2.2217,0,-2.207,-2.2075,-2.2101,-2.2114,-2.2117,-2.2133,-2.2144,-2.2157,-2.2162,-2.218,-2.2185,-2.2192,-2.2208,-2.2212,-2.2232,-2.2233,-2.2257,-2.2256,-2.2253,-2.2253,-2.2267,-2.2265,-2.2315,-2.2321,-2.2282,-2.2282,-2.2282,0,-2.2093,-2.2109,-2.2123,-2.2133,-2.214,-2.2157,-2.2167,-2.2169,-2.218,-2.2194,-2.2206,-2.2222,-2.2235,-2.2262,-2.2268,-2.2282,-2.2281,-2.2297,-2.2283,-2.2282,-2.228,-2.2278,-2.2279,-2.23,-2.23,-2.23,-2.2301,0,-2.2132,-2.2133,-2.2148,-2.2164,-2.2176,-2.2189,-2.2201,-2.2209,-2.2213,-2.2225,-2.2242,-2.2252,-2.2272,-2.2287,-2.2302,-2.2308,-2.2305,-2.2305,-2.2309,-2.2308,-2.2306,-2.2306,-2.226,-2.2304,-2.2303,-2.2303,-2.2303,-2.2303,-2.2159,-2.2172,-2.2184,-2.2201,-2.221,-2.2221,-2.2234,-2.224,-2.2254,-2.2271,-2.2271,-2.2289,-2.23,-2.2319,-2.2326,-2.234,-2.2335,-2.2341,-2.2342,-2.2343,-2.2344,-2.2304,-2.2343,-2.2343,-2.2342,-2.2342,-2.2342,0,-2.2197,-2.2204,-2.2219,-2.2236,-2.2248,-2.2245,-2.2257,-2.2268,-2.2284,-2.2295,-2.2307,-2.2326,-2.2341,-2.2349,-2.2363,-2.2373,-2.2371,-2.2376,-2.2375,-2.2376,-2.2348,-2.2343,-2.2377,-2.2377,-2.2377,-2.2377,-2.2377,-2.2377,-2.2218,-2.224,-2.2243,-2.227,-2.2276,-2.2295,-2.2302,-2.2311,-2.232,-2.2341,-2.2354,-2.2358,-2.2367,-2.2382,-2.2395,-2.2397,-2.2402,-2.2408,-2.2408,-2.2382,-2.2378,-2.2375,-2.237,-2.2409,-2.2409,-2.2435,-2.2435,-2.2435]}]]